^^

..:: Storico WU ::..




Lo storico viene creato da WUnderground con i dati che la stazione Meteomincio invia al loro server. L' aggiornamento viene fatto ogni 5 minuti circa, tuttavia possono esserci intervalli pi¨ ampi a causa di errori, interruzioni di servizio o problemi nell' invio tramite FTP.


Storico stazione MeteoMincio
Giorno Sommario per Maggio 04, 2022 Unità:  Inglese    Metrico   Entrambi
Giorno Settimana Mese Anno
  Max: Min: Media:
Temperatura: 75.6 °F 51.6 °F 62.6 °F
Dew Point: 57.6 °F 49.1 °F 53.1 °F
Umidità: 92% 43.9% 73%
Velocità vento: 10.6mph 0mph 2.7mph
Raffica: 16.1mph - -
Direzione- - WSW
Pressione: 30.1 in 30 in -
Precipitazioni: 0 in    
 
 
Tabulato Dati per Maggio 04, 2022
Ora Temperatura Dew Point Pressione Direzione Velocità vento Raffica Umidità Intensità pioggia (oraria) Info solare Situazione
00:04 57.7 °F 50.9 °F 30 in WSW 2.7 mph 4 mph 77.7% 0 in 0 W/m2
00:09 57.6 °F 50.9 °F 30 in SW 3.2 mph 5 mph 78.6% 0 in 0 W/m2
00:14 57.7 °F 51.3 °F 30 in SW 3.2 mph 6 mph 78.7% 0 in 0 W/m2
00:19 57.9 °F 51.3 °F 30 in WSW 2.7 mph 6 mph 78% 0 in 0 W/m2
00:24 57.7 °F 51.1 °F 30 in WSW 3.1 mph 6 mph 78.8% 0 in 0 W/m2
00:29 57.2 °F 50.9 °F 30 in WSW 2.7 mph 5 mph 79.6% 0 in 0 W/m2
00:34 56.7 °F 50.7 °F 30 in WSW 2.5 mph 4 mph 80.3% 0 in 0 W/m2
00:39 56.5 °F 50.7 °F 30 in WSW 2.5 mph 4 mph 81% 0 in 0 W/m2
00:44 56.3 °F 50.5 °F 30 in WSW 2.9 mph 4 mph 81.1% 0 in 0 W/m2
00:49 56.3 °F 50.9 °F 30 in WSW 2.9 mph 4 mph 82% 0 in 0 W/m2
00:50 56.1 °F 50.7 °F 30 in WSW 2.9 mph 4 mph 82% 0 in 0 W/m2
00:59 55.9 °F 50.7 °F 30 in WSW 3.5 mph 5 mph 83% 0 in 0 W/m2
01:04 55.8 °F 50.7 °F 30 in WSW 3.3 mph 5 mph 83% 0 in 0 W/m2
01:09 55.8 °F 50.7 °F 30 in WSW 2.7 mph 5 mph 83% 0 in 0 W/m2
01:14 55.8 °F 50.7 °F 30 in WSW 3.6 mph 5 mph 83% 0 in 0 W/m2
01:19 55.8 °F 50.9 °F 30 in WSW 3.9 mph 7 mph 83.7% 0 in 0 W/m2
01:24 55.8 °F 51.1 °F 30 in WSW 4.8 mph 7 mph 84% 0 in 0 W/m2
01:29 55.8 °F 51.1 °F 30 in WSW 3.9 mph 7 mph 84% 0 in 0 W/m2
01:34 55.8 °F 51.1 °F 30 in WSW 2.9 mph 6 mph 84% 0 in 0 W/m2
01:39 55.8 °F 50.9 °F 30 in WSW 3.1 mph 5 mph 84% 0 in 0 W/m2
01:44 55.8 °F 51.1 °F 30 in West 3 mph 5 mph 84.4% 0 in 0 W/m2
01:49 55.6 °F 51.3 °F 30 in West 3.4 mph 5 mph 85% 0 in 0 W/m2
01:54 55.6 °F 51.3 °F 30 in WSW 3.4 mph 4 mph 85% 0 in 0 W/m2
01:59 55.6 °F 51.3 °F 30 in WSW 2.8 mph 4 mph 85% 0 in 0 W/m2
02:04 55.9 °F 51.3 °F 30 in WSW 2.7 mph 4 mph 84.3% 0 in 0 W/m2
02:09 55.9 °F 51.1 °F 30 in WSW 2.1 mph 3.5 mph 84% 0 in 0 W/m2
02:14 55.8 °F 51.1 °F 30 in WSW 1.7 mph 3.5 mph 84% 0 in 0 W/m2
02:19 55.6 °F 51.1 °F 30 in WSW 2.4 mph 5 mph 84.5% 0 in 0 W/m2
02:24 55.6 °F 51.1 °F 30 in WSW 2.7 mph 5 mph 85% 0 in 0 W/m2
02:29 55.6 °F 51.1 °F 30 in WSW 2.7 mph 4 mph 85% 0 in 0 W/m2
02:34 55.4 °F 51.1 °F 30 in WSW 2.5 mph 4 mph 85% 0 in 0 W/m2
02:39 55.2 °F 50.9 °F 30 in WSW 2.2 mph 4 mph 85% 0 in 0 W/m2
02:44 55 °F 50.9 °F 30 in West 2.5 mph 4 mph 85.8% 0 in 0 W/m2
02:49 54.7 °F 50.7 °F 30 in WSW 2.7 mph 4 mph 86% 0 in 0 W/m2
02:54 54.9 °F 50.7 °F 30 in WSW 2.7 mph 4 mph 86% 0 in 0 W/m2
02:59 55 °F 50.9 °F 30 in WSW 2.8 mph 4 mph 86% 0 in 0 W/m2
03:04 54.9 °F 50.9 °F 30 in WSW 2.1 mph 5 mph 86% 0 in 0 W/m2
03:09 54.9 °F 50.9 °F 30 in WSW 3.2 mph 5 mph 86.4% 0 in 0 W/m2
03:14 54.9 °F 51.1 °F 30 in WSW 3.1 mph 5 mph 87% 0 in 0 W/m2
03:19 54.7 °F 50.9 °F 30 in WSW 2.7 mph 4 mph 87% 0 in 0 W/m2
03:24 54.7 °F 50.9 °F 30 in WSW 2.6 mph 4 mph 87% 0 in 0 W/m2
03:29 54.5 °F 50.7 °F 30 in WSW 2.3 mph 4 mph 87% 0 in 0 W/m2
03:34 54.5 °F 50.9 °F 30 in WSW 2.2 mph 4 mph 87.6% 0 in 0 W/m2
03:39 54.5 °F 50.9 °F 30 in WSW 2.4 mph 4 mph 88% 0 in 0 W/m2
03:44 54.1 °F 50.7 °F 30 in WSW 2.3 mph 4 mph 88% 0 in 0 W/m2
03:49 54.1 °F 50.7 °F 30 in WSW 2.6 mph 4 mph 88% 0 in 0 W/m2
03:54 54.3 °F 50.7 °F 30 in SW 2.1 mph 3.5 mph 88% 0 in 0 W/m2
03:59 54.3 °F 50.7 °F 30 in WSW 1.7 mph 3.5 mph 88% 0 in 0 W/m2
04:00 54.3 °F 50.7 °F 30 in WSW 1 mph 3 mph 88% 0 in 0 W/m2
04:09 54 °F 50.9 °F 30 in WSW 2.3 mph 4 mph 89% 0 in 0 W/m2
04:13 54 °F 50.7 °F 30 in WSW 2.5 mph 4 mph 89% 0 in 0 W/m2
04:17 53.8 °F 50.5 °F 30 in WSW 2.5 mph 3.5 mph 89% 0 in 0 W/m2
04:23 53.8 °F 50.7 °F 30 in WSW 2.2 mph 4 mph 89.5% 0 in 0 W/m2
04:25 53.6 °F 50.7 °F 30 in West 1.7 mph 3.5 mph 90% 0 in 0 W/m2
04:33 53.4 °F 50.5 °F 30 in WSW 1.7 mph 3 mph 90% 0 in 0 W/m2
04:37 53.1 °F 50.2 °F 30 in WSW 2.1 mph 3.5 mph 90% 0 in 0 W/m2
04:44 53.1 °F 50.2 °F 30 in WSW 2.6 mph 4 mph 90% 0 in 0 W/m2
04:48 53.1 °F 50.4 °F 30 in SW 2.6 mph 4 mph 90.4% 0 in 0 W/m2
04:53 53.1 °F 50.4 °F 30 in SW 2.4 mph 3.5 mph 91% 0 in 0 W/m2
04:59 53.1 °F 50.5 °F 30 in WSW 2.3 mph 4 mph 91% 0 in 0 W/m2
05:04 52.9 °F 50.4 °F 30 in WSW 3 mph 4 mph 91% 0 in 0 W/m2
05:09 52.7 °F 50.2 °F 30 in WSW 2.9 mph 4 mph 91% 0 in 0 W/m2
05:14 52.5 °F 50 °F 30 in WSW 2.3 mph 4 mph 91% 0 in 0 W/m2
05:19 52.5 °F 49.8 °F 30 in WSW 2.2 mph 3.5 mph 91% 0 in 0 W/m2
05:24 52.3 °F 49.8 °F 30 in WSW 2.1 mph 3.5 mph 91% 0 in 0 W/m2
05:29 52.3 °F 49.8 °F 30 in WSW 2.4 mph 3.5 mph 91% 0 in 0 W/m2
05:34 52.2 °F 49.8 °F 30 in WSW 2.6 mph 3.5 mph 91.6% 0 in 0 W/m2
05:39 52.2 °F 50 °F 30 in WSW 2.4 mph 3.5 mph 92% 0 in 0 W/m2
05:44 52.2 °F 49.8 °F 30 in WSW 2.3 mph 4 mph 92% 0 in 0 W/m2
05:49 52 °F 49.6 °F 30 in WSW 2.9 mph 4 mph 91.8% 0 in 0 W/m2
05:54 51.8 °F 49.5 °F 30 in WSW 3 mph 4 mph 91.7% 0 in 0 W/m2
05:59 51.8 °F 49.5 °F 30 in WSW 3 mph 4 mph 92% 0 in 0 W/m2
06:04 51.6 °F 49.3 °F 30 in WSW 3.1 mph 4 mph 91.1% 0 in 0 W/m2
06:09 51.6 °F 49.1 °F 30 in WSW 3.2 mph 4 mph 91% 0 in 5 W/m2
06:14 51.6 °F 49.1 °F 30 in WSW 2.4 mph 4 mph 91% 0 in 7 W/m2
06:19 51.6 °F 49.1 °F 30 in WSW 2.7 mph 4 mph 91% 0 in 11 W/m2
06:24 51.8 °F 49.3 °F 30 in WSW 2.6 mph 4 mph 91% 0 in 14 W/m2
06:29 51.8 °F 49.3 °F 30 in WSW 2.4 mph 4 mph 91% 0 in 16 W/m2
06:34 51.6 °F 49.1 °F 30 in WSW 2.8 mph 4 mph 91% 0 in 21 W/m2
06:39 51.6 °F 49.1 °F 30 in WSW 2.6 mph 5 mph 91% 0 in 26 W/m2
06:44 51.6 °F 49.1 °F 30 in WSW 2.8 mph 5 mph 91% 0 in 39 W/m2
06:49 51.6 °F 49.3 °F 30 in WSW 2.9 mph 5 mph 91% 0 in 44 W/m2
06:54 51.8 °F 49.3 °F 30 in WSW 2.9 mph 5 mph 90.8% 0 in 44 W/m2
06:59 51.8 °F 49.1 °F 30 in West 2.6 mph 4 mph 90% 0 in 37 W/m2
07:04 51.8 °F 49.1 °F 30 in WSW 2.5 mph 4 mph 90% 0 in 42 W/m2
07:09 52 °F 49.1 °F 30 in WSW 2.4 mph 3.5 mph 90% 0 in 54 W/m2
07:14 52.2 °F 49.3 °F 30 in WSW 2.2 mph 3.5 mph 90% 0 in 69 W/m2
07:19 52.3 °F 49.8 °F 30 in WSW 2.1 mph 3.5 mph 90.7% 0 in 88 W/m2
07:24 52.7 °F 50 °F 30 in WSW 2.4 mph 3.5 mph 90.6% 0 in 113 W/m2
07:29 53.2 °F 50.4 °F 30 in WSW 2.2 mph 3.5 mph 90.4% 0 in 171 W/m2
07:34 53.6 °F 50.7 °F 30 in WSW 2.2 mph 3.5 mph 90% 0 in 171 W/m2
07:39 54.3 °F 51.3 °F 30 in WSW 2.4 mph 4 mph 90% 0 in 167 W/m2
07:44 54.7 °F 51.6 °F 30 in WSW 2.8 mph 4 mph 89.3% 0 in 179 W/m2
07:49 55 °F 51.8 °F 30 in WSW 3.2 mph 5 mph 89% 0 in 192 W/m2
07:54 55.4 °F 52.3 °F 30 in West 2.2 mph 5 mph 89% 0 in 250 W/m2
07:59 56.1 °F 52.7 °F 30 in West 3 mph 4 mph 88.5% 0 in 229 W/m2
08:04 56.5 °F 53.1 °F 30 in West 3.3 mph 6 mph 88% 0 in 192 W/m2
08:09 56.7 °F 53.2 °F 30 in WSW 4.5 mph 7 mph 88% 0 in 301 W/m2
08:14 57 °F 53.6 °F 30 in West 4.8 mph 7 mph 88% 0 in 302 W/m2
08:19 57.6 °F 54 °F 30 in West 4.8 mph 8.1 mph 87.8% 0 in 325 W/m2
08:24 58.1 °F 54.1 °F 30 in West 5 mph 8.1 mph 86.8% 0 in 329 W/m2
08:29 58.3 °F 54.1 °F 30 in WNW 3.6 mph 8 mph 86.2% 0 in 316 W/m2
08:34 58.5 °F 54.3 °F 30 in West 3.2 mph 6 mph 86% 0 in 376 W/m2
08:39 58.8 °F 54.3 °F 30 in WNW 3.2 mph 5 mph 85.6% 0 in 394 W/m2
08:44 59.2 °F 54.5 °F 30 in WNW 3.2 mph 5 mph 84.8% 0 in 403 W/m2
08:49 59.5 °F 55 °F 30 in WNW 3.1 mph 6 mph 84.9% 0 in 390 W/m2
08:54 59.9 °F 55 °F 30 in West 2.5 mph 6 mph 84% 0 in 348 W/m2
08:59 60.3 °F 55.4 °F 30 in WSW 2.4 mph 5 mph 84% 0 in 394 W/m2
09:04 60.3 °F 55.2 °F 30 in WSW 1.5 mph 5 mph 83.4% 0 in 343 W/m2
09:09 60.3 °F 55.2 °F 30 in WSW 1.5 mph 4 mph 83.1% 0 in 359 W/m2
09:14 60.4 °F 55.2 °F 30 in WSW 2.8 mph 4 mph 83% 0 in 359 W/m2
09:19 60.6 °F 55 °F 30 in West 2.4 mph 4 mph 82% 0 in 353 W/m2
09:24 60.8 °F 55.4 °F 30 in WSW 2.1 mph 4 mph 82.4% 0 in 418 W/m2
09:29 61.2 °F 55.8 °F 30 in West 2.4 mph 4 mph 82.4% 0 in 376 W/m2
09:34 61.3 °F 55.2 °F 30 in West 1.5 mph 4 mph 80.2% 0 in 345 W/m2
09:39 61.3 °F 55.4 °F 30 in WSW 1.4 mph 3.5 mph 80.7% 0 in 408 W/m2
09:44 61.7 °F 55.6 °F 30 in West 2.3 mph 4 mph 80.6% 0 in 445 W/m2
09:49 62.2 °F 55.8 °F 30 in WSW 1.9 mph 4 mph 79.6% 0 in 443 W/m2
09:54 62.4 °F 55.8 °F 30 in SW 1.9 mph 4 mph 78.7% 0 in 455 W/m2
09:59 62.6 °F 55.8 °F 30 in WSW 1.8 mph 5 mph 78% 0 in 501 W/m2
10:04 63.1 °F 54.9 °F 30 in WNW 2.2 mph 5 mph 74.4% 0 in 510 W/m2
10:09 63.7 °F 55.4 °F 30 in West 1.7 mph 5 mph 74.6% 0 in 680 W/m2
10:14 64.4 °F 55.6 °F 30 in WNW 2.1 mph 4 mph 73.3% 0 in 698 W/m2
10:19 64.6 °F 55.6 °F 30 in West 2.8 mph 7 mph 72.7% 0 in 698 W/m2
10:24 64.4 °F 55.2 °F 30 in West 3.9 mph 7 mph 72.1% 0 in 601 W/m2
10:29 64.6 °F 55.4 °F 30 in West 3.2 mph 7 mph 72.1% 0 in 589 W/m2
10:34 65.1 °F 55.8 °F 30 in WNW 1.7 mph 5 mph 72% 0 in 601 W/m2
10:39 65.7 °F 55.9 °F 30 in West 2.3 mph 5 mph 71.1% 0 in 541 W/m2
10:44 65.7 °F 55.6 °F 30 in West 3 mph 5 mph 69.9% 0 in 554 W/m2
10:49 65.8 °F 55.9 °F 30 in West 2.5 mph 8.1 mph 70.7% 0 in 554 W/m2
10:54 65.8 °F 56.1 °F 30 in WSW 3.2 mph 8.1 mph 70.9% 0 in 645 W/m2
10:59 66.4 °F 56.5 °F 30 in SSW 1.6 mph 8 mph 70.6% 0 in 788 W/m2
11:04 67.1 °F 56.7 °F 30 in WSW 2.4 mph 6 mph 69.3% 0 in 828 W/m2
11:09 67.5 °F 57 °F 30 in SW 2.5 mph 6 mph 68.9% 0 in 824 W/m2
11:14 67.5 °F 57 °F 30 in SW 2.5 mph 6 mph 69.2% 0 in 802 W/m2
11:19 67.8 °F 57.4 °F 30 in South 1.2 mph 7 mph 69.3% 0 in 817 W/m2
11:24 68.4 °F 57.6 °F 30 in SSW 2.2 mph 7 mph 68.4% 0 in 807 W/m2
11:34 69.4 °F 56.3 °F 30 in West 2.2 mph 5 mph 63.3% 0 in 874 W/m2
11:39 69.4 °F 57 °F 30 in WSW 2.4 mph 4 mph 64.7% 0 in 847 W/m2
11:44 69.6 °F 56.8 °F 30 in WSW 2.1 mph 4 mph 63.6% 0 in 923 W/m2
11:49 69.8 °F 56.3 °F 30 in SE 1.6 mph 3.5 mph 62.4% 0 in 919 W/m2
11:54 70.2 °F 57.4 °F 30 in NNE 2.1 mph 4 mph 63.8% 0 in 758 W/m2
11:59 71.2 °F 56.8 °F 30 in WNW 1.9 mph 4 mph 60.8% 0 in 657 W/m2
12:04 71.2 °F 57.4 °F 30 in WSW 3 mph 6 mph 61.6% 0 in 744 W/m2
12:09 71.1 °F 56.8 °F 30 in WSW 4.3 mph 7 mph 60.7% 0 in 652 W/m2
12:14 70.9 °F 56.7 °F 30 in WSW 4.3 mph 7 mph 60.9% 0 in 670 W/m2
12:19 70.7 °F 56.1 °F 30 in West 3.5 mph 7 mph 60.1% 0 in 698 W/m2
12:24 70.7 °F 56.1 °F 30 in South 1.9 mph 7 mph 60.1% 0 in 847 W/m2
12:29 71.2 °F 56.8 °F 30 in WSW 3 mph 7 mph 60.5% 0 in 833 W/m2
12:34 72 °F 57 °F 30 in WSW 3.2 mph 7 mph 59.3% 0 in 833 W/m2
12:39 71.8 °F 55.2 °F 30 in SW 3.5 mph 7 mph 56% 0 in 789 W/m2
12:44 71.1 °F 54.5 °F 30 in SSW 1.7 mph 7 mph 55.9% 0 in 824 W/m2
12:49 71.2 °F 54 °F 30 in West 1.6 mph 3.5 mph 54.4% 0 in 819 W/m2
12:54 71.6 °F 53.2 °F 30 in WNW 2.2 mph 4 mph 52.3% 0 in 721 W/m2
12:59 72.1 °F 54.5 °F 30 in NE 3 mph 5 mph 53.8% 0 in 489 W/m2
13:04 72.9 °F 54.9 °F 30 in NE 2.6 mph 5 mph 53.4% 0 in 329 W/m2
13:09 73.2 °F 54.7 °F 30 in ESE 3 mph 5 mph 52.3% 0 in 589 W/m2
13:14 73 °F 53.2 °F 30 in ESE 3.4 mph 6 mph 49.9% 0 in 846 W/m2
13:19 73 °F 53.6 °F 30 in SSE 2.5 mph 6 mph 50.8% 0 in 877 W/m2
13:24 73.4 °F 54.1 °F 30 in SSW 3.7 mph 6 mph 51.1% 0 in 877 W/m2
13:29 72.9 °F 53.1 °F 30 in SSW 3.4 mph 6 mph 50.1% 0 in 875 W/m2
13:30 73 °F 52.2 °F 30 in SW 4.7 mph 6 mph 48% 0 in 837 W/m2
13:39 73.9 °F 52.5 °F 30 in West 3.9 mph 8 mph 47.3% 0 in 888 W/m2
13:44 73.6 °F 52.9 °F 30 in WSW 4.1 mph 8.1 mph 48.3% 0 in 881 W/m2
13:49 73.4 °F 52.7 °F 30 in SSW 3.7 mph 8 mph 48.4% 0 in 881 W/m2
13:54 73.6 °F 52.3 °F 30 in SSW 3.7 mph 7 mph 47.6% 0 in 861 W/m2
13:59 74.5 °F 54.1 °F 30 in SW 2.7 mph 6 mph 49.1% 0 in 863 W/m2
14:04 74.3 °F 52.2 °F 30 in South 1.7 mph 6 mph 46.1% 0 in 882 W/m2
14:09 73.9 °F 52.2 °F 30 in SSW 1.7 mph 7 mph 46.6% 0 in 886 W/m2
14:14 74.1 °F 52.7 °F 30 in SW 3.6 mph 7 mph 47.2% 0 in 886 W/m2
14:19 74.5 °F 52.5 °F 30 in SSW 1.7 mph 7 mph 46.4% 0 in 889 W/m2
14:24 75.6 °F 53.4 °F 30 in South 2.5 mph 7 mph 46.1% 0 in 824 W/m2
14:29 75 °F 53.2 °F 30 in NW 1.1 mph 4 mph 46.5% 0 in 508 W/m2
14:34 74.7 °F 52 °F 30 in SW 2.6 mph 6 mph 45% 0 in 378 W/m2
14:39 73.9 °F 50.5 °F 30 in SW 3.6 mph 6 mph 43.9% 0 in 292 W/m2
14:44 73.9 °F 50.7 °F 30 in South 2.5 mph 6 mph 44% 0 in 313 W/m2
14:49 73.8 °F 50.4 °F 30 in SSW 1.4 mph 4 mph 43.9% 0 in 316 W/m2
14:54 73.6 °F 50.7 °F 30 in South 0.7 mph 3.5 mph 44.6% 0 in 316 W/m2
14:59 73.8 °F 51.8 °F 30 in SSW 2.7 mph 5 mph 46.3% 0 in 309 W/m2
15:04 73.6 °F 52.3 °F 30 in WSW 3.4 mph 6 mph 47.4% 0 in 302 W/m2
15:09 73.6 °F 52.2 °F 30 in West 3.2 mph 6 mph 47.2% 0 in 301 W/m2
15:14 73.4 °F 52.7 °F 30 in West 3.3 mph 6 mph 48.4% 0 in 288 W/m2
15:19 73 °F 52.7 °F 30 in WSW 3.7 mph 6 mph 48.8% 0 in 271 W/m2
15:24 72.9 °F 52.9 °F 30 in WSW 2.4 mph 6 mph 49.3% 0 in 246 W/m2
15:29 72.7 °F 52.5 °F 30 in WSW 2.2 mph 5 mph 49.3% 0 in 227 W/m2
15:34 72.7 °F 52.9 °F 30 in WSW 2.7 mph 6 mph 50.2% 0 in 207 W/m2
15:39 73 °F 54.3 °F 30 in WSW 4.1 mph 8.1 mph 51.9% 0 in 190 W/m2
15:44 72.7 °F 54.5 °F 30 in WSW 5.6 mph 8.1 mph 52.8% 0 in 178 W/m2
15:49 72.7 °F 54.7 °F 30 in SW 5.5 mph 8 mph 53.2% 0 in 171 W/m2
15:54 72.7 °F 54.5 °F 30 in SW 4.8 mph 8.1 mph 52.9% 0 in 160 W/m2
15:59 72.3 °F 54.3 °F 30 in SW 5 mph 8.1 mph 52.9% 0 in 155 W/m2
16:04 72.1 °F 53.6 °F 30 in SW 5.5 mph 8.1 mph 52.1% 0 in 149 W/m2
16:09 72.1 °F 53.6 °F 30 in SW 5.3 mph 9 mph 52.2% 0 in 148 W/m2
16:14 72 °F 53.4 °F 30 in WSW 5.2 mph 9 mph 52% 0 in 155 W/m2
16:19 72 °F 53.8 °F 30 in WSW 4.6 mph 8 mph 52.8% 0 in 165 W/m2
16:24 72 °F 53.8 °F 30 in WSW 4.8 mph 11 mph 53.1% 0 in 171 W/m2
16:29 71.6 °F 54.9 °F 30 in SW 7.2 mph 12 mph 55.7% 0 in 171 W/m2
16:34 70.9 °F 55.4 °F 30 in SW 8.4 mph 16.1 mph 58.2% 0 in 169 W/m2
16:39 70 °F 55.8 °F 30 in WSW 10.6 mph 16.1 mph 60.5% 0 in 165 W/m2
16:44 69.4 °F 56.1 °F 30 in WSW 9.3 mph 16 mph 62.6% 0 in 179 W/m2
16:49 69.3 °F 56.3 °F 30 in WSW 8.6 mph 14 mph 63% 0 in 200 W/m2
16:54 69.3 °F 56.3 °F 30 in WSW 7.3 mph 13 mph 63.7% 0 in 213 W/m2
16:59 68.9 °F 56.1 °F 30 in WSW 7.5 mph 12 mph 63.8% 0 in 213 W/m2
17:04 68.7 °F 56.1 °F 30 in SW 7.8 mph 12 mph 64.2% 0 in 207 W/m2
17:09 68.9 °F 56.1 °F 30 in SW 6.5 mph 12 mph 63.8% 0 in 197 W/m2
17:14 69.1 °F 55.9 °F 30 in SSW 7.2 mph 12 mph 63% 0 in 229 W/m2
17:19 69.1 °F 56.3 °F 30 in SSW 8.2 mph 16.1 mph 64.2% 0 in 237 W/m2
17:24 68.7 °F 56.7 °F 30 in SSW 7.4 mph 16 mph 65% 0 in 237 W/m2
17:29 68.5 °F 56.7 °F 30 in South 7.5 mph 14 mph 65.8% 0 in 216 W/m2
17:34 68.4 °F 56.5 °F 30 in SSW 8.7 mph 14 mph 66% 0 in 223 W/m2
17:39 68.4 °F 56.5 °F 30 in SSW 8 mph 15 mph 66% 0 in 258 W/m2
17:44 68.2 °F 56.5 °F 30 in South 8.1 mph 15 mph 66% 0 in 258 W/m2
17:49 68.7 °F 56.8 °F 30 in SSW 6.5 mph 15 mph 65.7% 0 in 489 W/m2
17:54 69.4 °F 56.8 °F 30 in SSE 6.3 mph 12 mph 64.3% 0 in 482 W/m2
17:59 69.6 °F 56.3 °F 30 in SSW 5.1 mph 12 mph 62.8% 0 in 482 W/m2
18:04 70.2 °F 56.7 °F 30 in SSW 4.2 mph 9 mph 62.2% 0 in 424 W/m2
18:09 70.7 °F 56.5 °F 30 in WSW 3.9 mph 8 mph 60.7% 0 in 439 W/m2
18:14 70.7 °F 56.3 °F 30 in WSW 3.6 mph 6 mph 60.2% 0 in 439 W/m2
18:19 70.7 °F 56.5 °F 30 in WSW 3.7 mph 6 mph 60.7% 0 in 410 W/m2
18:24 70.9 °F 56.8 °F 30 in West 2.2 mph 6 mph 60.9% 0 in 387 W/m2
18:29 71.2 °F 56.8 °F 30 in NW 3.1 mph 5 mph 60.6% 0 in 355 W/m2
18:34 71.1 °F 56.8 °F 30 in West 2.9 mph 5 mph 60.8% 0 in 299 W/m2
18:39 70.5 °F 56.7 °F 30 in West 3.2 mph 5 mph 61.5% 0 in 283 W/m2
18:44 70.3 °F 56.8 °F 30 in West 3.9 mph 6 mph 62.1% 0 in 258 W/m2
18:49 70 °F 56.7 °F 30 in West 3.5 mph 6 mph 62.7% 0 in 197 W/m2
18:54 69.8 °F 56.7 °F 30 in West 2.4 mph 6 mph 63.3% 0 in 216 W/m2
18:59 70 °F 56.7 °F 30 in West 3.7 mph 6 mph 63% 0 in 211 W/m2
19:04 70 °F 56.7 °F 30 in WNW 3.6 mph 6 mph 62.7% 0 in 186 W/m2
19:09 70 °F 56.1 °F 30 in NNW 3.7 mph 6.9 mph 61.4% 0 in 183 W/m2
19:14 70 °F 55.2 °F 30 in NNW 3.2 mph 7 mph 59.5% 0 in 169 W/m2
19:19 69.8 °F 54.9 °F 30 in NW 3.4 mph 7 mph 59.2% 0 in 144 W/m2
19:24 69.3 °F 54.5 °F 30 in NNW 3.7 mph 7 mph 59.6% 0 in 77 W/m2
19:29 68.9 °F 54.3 °F 30 in NNW 2.7 mph 6 mph 59.8% 0 in 63 W/m2
19:34 68.7 °F 54.5 °F 30 in NW 3.6 mph 6 mph 60.5% 0 in 51 W/m2
19:39 68.5 °F 54.3 °F 30 in NW 4.3 mph 6 mph 60.4% 0 in 44 W/m2
19:44 68.4 °F 54.1 °F 30 in NW 2.4 mph 6 mph 60.8% 0 in 33 W/m2
19:49 68 °F 54 °F 30 in NNW 2.3 mph 4 mph 61% 0 in 33 W/m2
19:54 67.8 °F 54.1 °F 30 in NNW 1.9 mph 4 mph 61.5% 0 in 33 W/m2
19:59 67.6 °F 54 °F 30 in NNW 1.2 mph 3.5 mph 61.8% 0 in 32 W/m2
20:04 67.3 °F 53.8 °F 30 in NNW 1.1 mph 3.5 mph 62% 0 in 28 W/m2
20:09 66.9 °F 53.6 °F 30 in NNW 1.1 mph 3.5 mph 62.1% 0 in 23 W/m2
20:14 66.7 °F 53.8 °F 30 in NW 0.4 mph 3 mph 63% 0 in 18 W/m2
20:19 66.2 °F 53.6 °F 30 in WNW 0.8 mph 2.3 mph 64% 0 in 12 W/m2
20:24 65.8 °F 53.8 °F 30 in WNW 0.3 mph 2 mph 64.7% 0 in 9 W/m2
20:29 65.7 °F 54 °F 30 in NW 0.4 mph 2.3 mph 65.8% 0 in 0 W/m2
20:34 65.3 °F 53.8 °F 30 in NW 0.7 mph 2.3 mph 66.4% 0 in 0 W/m2
20:39 64.8 °F 53.2 °F 30 in WNW 1.2 mph 2.3 mph 66% 0 in 0 W/m2
20:44 64.8 °F 53.2 °F 30 in WNW 0.6 mph 2.3 mph 66% 0 in 0 W/m2
20:49 64.4 °F 53.1 °F 30 in Calm   2 mph 66.5% 0 in 0 W/m2
20:54 64.2 °F 53.4 °F 30 in Calm     67.7% 0 in 0 W/m2
20:59 63.9 °F 53.1 °F 30 in Calm     68% 0 in 0 W/m2
21:04 63.7 °F 53.2 °F 30 in Calm     69% 0 in 0 W/m2
21:09 63.1 °F 53.1 °F 30 in Calm     69.7% 0 in 0 W/m2
21:14 62.2 °F 52.7 °F 30 in Calm     70.9% 0 in 0 W/m2
21:19 61.9 °F 52.9 °F 30 in Calm     72.6% 0 in 0 W/m2
21:24 61.3 °F 52.7 °F 30 in SSW 0.5 mph 2.3 mph 73.4% 0 in 0 W/m2
21:29 61 °F 52.9 °F 30 in SSW 0.7 mph 2.3 mph 74.8% 0 in 0 W/m2
21:34 61 °F 52.9 °F 30 in SSW 0.1 mph 1.2 mph 75% 0 in 0 W/m2
21:39 60.8 °F 52.9 °F 30 in Calm   1 mph 75% 0 in 0 W/m2
21:44 60.4 °F 52.7 °F 30 in SSW 0.3 mph 1.2 mph 75.2% 0 in 0 W/m2
21:49 60.3 °F 52.7 °F 30 in SSW 0.5 mph 1.2 mph 76.4% 0 in 0 W/m2
21:54 60.3 °F 52.3 °F 30 in SW 0.6 mph 1.2 mph 75.3% 0 in 0 W/m2
21:59 60.3 °F 52.5 °F 30 in SW 0.9 mph 2.3 mph 75.8% 0 in 0 W/m2
22:04 60.1 °F 52.5 °F 30 in SW 0.7 mph 2 mph 76% 0 in 0 W/m2
22:09 59.9 °F 52.5 °F 30 in SW 0.4 mph 1.2 mph 76.3% 0 in 0 W/m2
22:14 59.7 °F 52.5 °F 30 in Calm   1 mph 77% 0 in 0 W/m2
22:19 59.7 °F 52.7 °F 30 in Calm     77.8% 0 in 0 W/m2
22:24 59.7 °F 52.7 °F 30 in Calm   1.2 mph 77.6% 0 in 0 W/m2
22:29 59.4 °F 52.7 °F 30 in SW 0.3 mph 1.2 mph 78.5% 0 in 0 W/m2
22:34 58.6 °F 52.3 °F 30 in SSE 1 mph 2.3 mph 79.6% 0 in 0 W/m2
22:39 57.9 °F 52 °F 30 in East 1 mph 2.3 mph 80.6% 0 in 0 W/m2
22:44 57.6 °F 52 °F 30 in East 0.4 mph 2.3 mph 81.4% 0 in 0 W/m2
22:49 57.7 °F 52.2 °F 30 in East 0.1 mph 2 mph 81.5% 0 in 0 W/m2
22:54 57.9 °F 52.2 °F 30 in East 0.6 mph 1.2 mph 81% 0 in 0 W/m2
22:59 58.1 °F 52.3 °F 30 in East 0.6 mph 1.2 mph 81% 0 in 0 W/m2
23:04 57.9 °F 52.2 °F 30 in East 0.1 mph 1.2 mph 81% 0 in 0 W/m2
23:09 57.6 °F 52 °F 30 in Calm   1 mph 81.7% 0 in 0 W/m2
23:14 57.6 °F 52 °F 30.1 in Calm     82% 0 in 0 W/m2
23:19 57.6 °F 52.2 °F 30.1 in ENE 0.7 mph 3.5 mph 82.6% 0 in 0 W/m2
23:24 57.4 °F 52.3 °F 30.1 in ENE 1.2 mph 3 mph 83% 0 in 0 W/m2
23:29 57.2 °F 52 °F 30.1 in ENE 0.6 mph 2.3 mph 83% 0 in 0 W/m2
23:34 57.2 °F 52 °F 30.1 in Calm   1 mph 83% 0 in 0 W/m2
23:39 57.2 °F 52.2 °F 30.1 in ENE 0.2 mph 1.2 mph 83% 0 in 0 W/m2
23:44 57.2 °F 52.2 °F 30.1 in ENE 0.1 mph 1.2 mph 83% 0 in 0 W/m2
23:49 57.4 °F 52.3 °F 30.1 in Calm   1 mph 83% 0 in 0 W/m2
23:54 57.2 °F 52.2 °F 30.1 in Calm     83% 0 in 0 W/m2
23:59 57.4 °F 52.3 °F 30.1 in NE 0.1 mph 1.2 mph 83% 0 in 0 W/m2
Stazione Meteorologica MeteoMincio Rivalta s/M (MN)
Con i complimenti di Weather Underground - 4 mb


METEO PILLOLE
Temperatura più bassa in un luogo abitato
Oymyakon (740m) - Russia
il 6 febbraio 1933 il termometro segnò -67.7°.

Do NOT follow this link or you will be banned from the site!